Tracking 19219 objects as of 20-Jul-2018
HD Live streaming from Space Station
objects crossing your sky now

FENGYUN 1C DEB

Track FENGYUN 1C DEB now!
10-day predictions


NORAD ID: 33748
Int'l Code: 1999-025DJM
Perigee: 799.0 km
Apogee: 861.0 km
Inclination: 98.8 °
Period: 101.4 minutes
Semi major axis: 7200 km
RCS: 0.0021 m2 (small)
Launch date: May 10, 1999
Source: People's Republic of China (PRC)
Launch site: Taiyaun Space Center, China (TSC)

Note: This is SATELLITE DEBRIS
aabbcc
Your satellite tracking list
Your tracking list is empty




NASA's NSSDC Master Catalog

Two Line Element Set (TLE):
1 33748U 99025DJM 18200.32844294  .00000454  00000-0  22922-3 0  9990
2 33748  98.8462 239.7106 0043109 156.2376 204.0803 14.20737442529163
Source of the keplerian elements: AFSPC